UAE8ER OMDB-KJFK

Flight info

Callsign UAE8ER
Flight time N/A
Altitude 34000
Route KUTLI L519 ATUDO M318 GOLGU M550 RIBOT DCT MIGMA DCT SITUK M321 KSA T503 OVANO L768 FIRAS R655 LEBOR UR655 BALMA L620 ALSUS DCT VESAR/N0483F360 UB545 OKLAM UL619 OSVEL UQ23 OSDAN UQ26 TUDBU DCT ETUBA Q26 UPAMA DCT GIKUN DCT GUPRO DCT DIDIX DCT INVED DCT DEXIT DCT INBED DCT BOMBI DCT ADKUV DCT SOGRI/N0471F380 DCT DENUT L610 KOPUL DCT ENHAQ DCT GAJIT DCT BAPHU DCT LESLU/M082F380 DCT RODEL DCT 51N020W 5030N03000W 4930N04000W 49N050W DCT JOOPY/N0477F380 N332A ALLEX DCT ENE PARCH4
Aircraft A388/J-SADE2E3FGHIJ3J4J5M1RWXY/LB1D1

Departure

Time N/A
Airport Dubai International Airport (OMDB)

Arrival

Time 2026-05-09 12:05
Airport John F. Kennedy International Airport (KJFK)
Time Latitude Longitude Altitude Speed Heading
2026-05-09 11:34 41.89233 -71.35108 40062 ft 461 kts 207°
2026-05-09 11:35 41.83212 -71.37927 40059 ft 460 kts 207°
2026-05-09 11:35 41.77151 -71.40841 40060 ft 456 kts 211°
2026-05-09 11:36 41.71564 -71.44629 40060 ft 446 kts 219°
2026-05-09 11:36 41.66659 -71.49533 40050 ft 437 kts 226°
2026-05-09 11:37 41.61990 -71.54724 40032 ft 437 kts 226°
2026-05-09 11:37 41.57338 -71.59882 39653 ft 433 kts 226°
2026-05-09 11:38 41.55015 -71.62460 38979 ft 434 kts 227°
2026-05-09 11:38 41.52678 -71.65053 38024 ft 437 kts 227°
2026-05-09 11:38 41.50342 -71.67643 37233 ft 436 kts 227°
2026-05-09 11:38 41.48014 -71.70213 36735 ft 429 kts 227°
2026-05-09 11:39 41.45754 -71.72703 36463 ft 421 kts 228°
2026-05-09 11:39 41.43481 -71.75214 36210 ft 423 kts 228°
2026-05-09 11:39 41.41239 -71.77697 35733 ft 427 kts 228°
2026-05-09 11:40 41.36611 -71.82812 33844 ft 438 kts 228°
2026-05-09 11:40 41.34265 -71.85391 33096 ft 435 kts 228°
2026-05-09 11:40 41.31958 -71.87915 32673 ft 425 kts 228°
2026-05-09 11:40 41.29703 -71.90377 32213 ft 416 kts 228°
2026-05-09 11:41 41.27484 -71.92810 31629 ft 410 kts 228°
2026-05-09 11:41 41.25299 -71.95212 31072 ft 405 kts 228°
2026-05-09 11:41 41.23133 -71.97592 30502 ft 400 kts 228°
2026-05-09 11:41 41.21008 -71.99926 29945 ft 395 kts 228°
2026-05-09 11:42 41.18901 -72.02236 29378 ft 389 kts 228°
2026-05-09 11:42 41.16826 -72.04507 28850 ft 383 kts 228°
2026-05-09 11:42 41.14782 -72.06743 28332 ft 377 kts 228°
2026-05-09 11:42 41.12782 -72.08944 27795 ft 370 kts 230°
2026-05-09 11:43 41.11058 -72.11342 27309 ft 356 kts 238°
2026-05-09 11:43 41.09692 -72.14053 26796 ft 345 kts 246°
2026-05-09 11:43 41.08711 -72.16899 26330 ft 336 kts 254°
2026-05-09 11:43 41.08007 -72.19813 25871 ft 330 kts 256°
2026-05-09 11:44 41.07316 -72.22650 25413 ft 326 kts 255°
2026-05-09 11:44 41.06603 -72.25520 24945 ft 322 kts 255°
2026-05-09 11:44 41.05916 -72.28277 24511 ft 319 kts 255°
2026-05-09 11:44 41.05221 -72.31061 24058 ft 315 kts 255°
2026-05-09 11:45 41.04536 -72.33811 23606 ft 313 kts 255°
2026-05-09 11:45 41.03858 -72.36533 23121 ft 309 kts 255°
2026-05-09 11:45 41.03188 -72.39217 22674 ft 305 kts 255°
2026-05-09 11:45 41.02522 -72.41888 22226 ft 306 kts 255°
2026-05-09 11:46 41.01856 -72.44557 21779 ft 303 kts 255°
2026-05-09 11:46 41.01195 -72.47199 21338 ft 302 kts 255°
2026-05-09 11:46 41.00546 -72.49795 20904 ft 301 kts 254°
2026-05-09 11:46 40.99891 -72.52406 20445 ft 298 kts 254°
2026-05-09 11:47 40.99238 -72.55014 19384 ft 309 kts 254°
2026-05-09 11:47 40.98552 -72.57757 18723 ft 319 kts 253°
2026-05-09 11:47 40.97849 -72.60550 18339 ft 320 kts 253°
2026-05-09 11:47 40.97141 -72.63360 17339 ft 326 kts 253°
2026-05-09 11:48 40.96411 -72.66259 16248 ft 336 kts 253°
2026-05-09 11:48 40.95663 -72.69218 15369 ft 338 kts 253°
2026-05-09 11:48 40.94918 -72.72159 14385 ft 338 kts 253°
2026-05-09 11:48 40.94173 -72.75102 13426 ft 336 kts 252°
2026-05-09 11:49 40.93345 -72.77913 13002 ft 318 kts 244°
2026-05-09 11:49 40.92141 -72.80300 12408 ft 310 kts 231°
2026-05-09 11:49 40.90568 -72.82241 11685 ft 310 kts 219°
2026-05-09 11:49 40.88809 -72.83856 11003 ft 307 kts 219°
2026-05-09 11:50 40.87115 -72.85466 10796 ft 293 kts 219°
2026-05-09 11:50 40.85513 -72.87005 10597 ft 275 kts 220°
2026-05-09 11:50 40.84018 -72.88442 10331 ft 260 kts 220°
2026-05-09 11:50 40.82570 -72.89838 9792 ft 256 kts 219°
2026-05-09 11:51 40.81141 -72.91215 9186 ft 253 kts 219°
2026-05-09 11:51 40.79752 -72.92603 8557 ft 248 kts 228°
2026-05-09 11:51 40.78893 -72.94484 8130 ft 245 kts 253°
2026-05-09 11:51 40.78554 -72.96721 7719 ft 245 kts 257°
2026-05-09 11:52 40.78264 -72.98902 7328 ft 244 kts 257°
2026-05-09 11:52 40.77977 -73.01102 7023 ft 243 kts 257°
2026-05-09 11:52 40.77692 -73.03288 6746 ft 242 kts 257°
2026-05-09 11:52 40.77411 -73.05473 6478 ft 242 kts 257°
2026-05-09 11:53 40.77133 -73.07670 6180 ft 242 kts 258°
2026-05-09 11:53 40.77284 -73.09907 5961 ft 252 kts 285°
2026-05-09 11:53 40.78183 -73.11937 5746 ft 259 kts 297°
2026-05-09 11:53 40.79172 -73.13902 5551 ft 258 kts 297°
2026-05-09 11:54 40.80159 -73.15870 5352 ft 255 kts 297°
2026-05-09 11:54 40.81134 -73.17825 5152 ft 253 kts 297°
2026-05-09 11:54 40.82101 -73.19768 4919 ft 252 kts 297°
2026-05-09 11:54 40.83054 -73.21710 4661 ft 252 kts 297°
2026-05-09 11:55 40.84007 -73.23678 4390 ft 254 kts 297°
2026-05-09 11:56 40.83751 -73.34599 3345 ft 248 kts 258°
2026-05-09 11:56 40.83457 -73.36827 3153 ft 251 kts 257°
2026-05-09 11:56 40.83135 -73.39129 2996 ft 250 kts 257°
2026-05-09 11:57 40.82816 -73.41387 2993 ft 250 kts 257°
2026-05-09 11:57 40.82499 -73.43647 2992 ft 252 kts 257°
2026-05-09 11:57 40.82182 -73.45923 2999 ft 251 kts 257°
2026-05-09 11:57 40.81873 -73.48158 2992 ft 250 kts 257°
2026-05-09 11:58 40.81568 -73.50359 2989 ft 236 kts 257°
2026-05-09 11:58 40.81283 -73.52424 2991 ft 224 kts 257°
2026-05-09 11:58 40.81003 -73.54434 2995 ft 220 kts 257°
2026-05-09 11:58 40.80726 -73.56412 2987 ft 218 kts 257°
2026-05-09 11:59 40.80450 -73.58375 2995 ft 214 kts 257°
2026-05-09 11:59 40.80191 -73.60238 3003 ft 198 kts 258°
2026-05-09 11:59 40.79949 -73.61949 2983 ft 182 kts 255°
2026-05-09 11:59 40.79430 -73.63409 3015 ft 171 kts 232°
2026-05-09 12:00 40.78560 -73.64441 2984 ft 166 kts 218°
2026-05-09 12:00 40.77583 -73.65244 2989 ft 166 kts 214°
2026-05-09 12:00 40.76589 -73.66010 2807 ft 165 kts 214°
2026-05-09 12:00 40.75653 -73.66748 2580 ft 151 kts 213°
2026-05-09 12:01 40.74762 -73.67449 2397 ft 148 kts 213°
2026-05-09 12:01 40.73880 -73.68144 2194 ft 148 kts 212°
2026-05-09 12:01 40.72998 -73.68837 1992 ft 148 kts 213°
2026-05-09 12:01 40.72168 -73.69487 1805 ft 135 kts 212°
2026-05-09 12:02 40.71382 -73.70106 1622 ft 130 kts 212°
2026-05-09 12:02 40.70615 -73.70709 1451 ft 128 kts 212°
2026-05-09 12:02 40.69846 -73.71312 1286 ft 129 kts 211°
2026-05-09 12:02 40.69078 -73.71914 1100 ft 129 kts 211°
2026-05-09 12:03 40.68304 -73.72522 926 ft 129 kts 210°
2026-05-09 12:03 40.67523 -73.73132 748 ft 131 kts 210°
2026-05-09 12:03 40.66736 -73.73753 586 ft 133 kts 209°
2026-05-09 12:03 40.65945 -73.74367 393 ft 131 kts 208°
2026-05-09 12:04 40.65162 -73.74989 226 ft 133 kts 210°
2026-05-09 12:04 40.64365 -73.75611 41 ft 133 kts 208°
2026-05-09 12:04 40.63679 -73.76147 27 ft 93 kts 211°
2026-05-09 12:04 40.63215 -73.76507 27 ft 65 kts 211°
2026-05-09 12:05 40.62884 -73.76767 28 ft 48 kts 211°
2026-05-09 12:05 40.62673 -73.76932 29 ft 31 kts 211°
2026-05-09 12:05 40.62583 -73.77043 30 ft 13 kts 252°
2026-05-09 12:05 40.62583 -73.77167 29 ft 13 kts 282°
2026-05-09 12:06 40.62638 -73.77237 30 ft 13 kts 345°
2026-05-09 12:06 40.62739 -73.77244 29 ft 17 kts 20°
2026-05-09 12:06 40.62853 -73.77160 29 ft 20 kts 31°
2026-05-09 12:06 40.62948 -73.77089 28 ft 9 kts
2026-05-09 12:07 40.63005 -73.77143 30 ft 12 kts 303°
2026-05-09 12:07 40.63056 -73.77252 32 ft 16 kts 301°
2026-05-09 12:07 40.63122 -73.77395 33 ft 20 kts 301°
2026-05-09 12:07 40.63197 -73.77562 35 ft 23 kts 301°
2026-05-09 12:08 40.63266 -73.77715 32 ft 18 kts 301°
2026-05-09 12:08 40.63305 -73.77801 32 ft 0 kts 301°
2026-05-09 12:08 40.63305 -73.77802 32 ft 0 kts 301°
2026-05-09 12:09 40.63308 -73.77808 32 ft 4 kts 301°
2026-05-09 12:09 40.63337 -73.77873 31 ft 11 kts 300°
2026-05-09 12:10 40.63526 -73.77812 27 ft 19 kts 31°
2026-05-09 12:10 40.63652 -73.77713 30 ft 23 kts 30°
2026-05-09 12:10 40.63794 -73.77602 28 ft 25 kts 31°
2026-05-09 12:11 40.63944 -73.77484 27 ft 21 kts 31°
2026-05-09 12:11 40.64026 -73.77421 27 ft 6 kts 20°
2026-05-09 12:11 40.64066 -73.77431 27 ft 8 kts 321°
2026-05-09 12:11 40.64121 -73.77501 28 ft 13 kts 320°
2026-05-09 12:12 40.64203 -73.77570 28 ft 14 kts 330°
2026-05-09 12:12 40.64257 -73.77610 28 ft 12 kts 330°
2026-05-09 12:12 40.64338 -73.77670 28 ft 12 kts 330°
2026-05-09 12:12 40.64374 -73.77736 28 ft 11 kts 271°
2026-05-09 12:13 40.64362 -73.77797 28 ft 3 kts 252°
2026-05-09 12:13 40.64360 -73.77806 28 ft 1 kts 252°
2026-05-09 12:13 40.64359 -73.77812 28 ft 0 kts 252°